Tracking 25949 objects as of 8-Aug-2022
HD Live streaming from Space Station
objects crossing your sky now

COSMOS 1275 DEB

Track COSMOS 1275 DEB now!
10-day predictions


NORAD ID: 13798
Int'l Code: 1981-053GV
Perigee: 916.7 km
Apogee: 1,045.7 km
Inclination: 83.0 °
Period: 104.6 minutes
Semi major axis: 7352 km
RCS: 0.0159 m2 (small)
Launch date: June 4, 1981
Source: Commonwealth of Independent States (former USSR) (CIS)
Launch site: PLESETSK MISSILE AND SPACE COMPLEX (PKMTR)

Note: This is SATELLITE DEBRIS
aabbcc
Your satellite tracking list
Your tracking list is empty




NASA's NSSDC Master Catalog

Two Line Element Set (TLE):
1 13798U 81053GS  22220.57356869  .00000338  00000-0  31674-3 0  9990
2 13798  83.0087  65.9252 0087728 126.7084 234.2174 13.77144500 48428
Source of the keplerian elements: AFSPC